Weather History for KINL - October, 2012

Change the Weather History Date:

Saturday, October 6, 2012

  Actual Average Record
Temperature  
Mean Temperature 37 °F 45 °F  
Max Temperature 46 °F 56 °F 81 °F (1961)
Min Temperature 27 °F 34 °F 18 °F (1999)
Degree Days  
Heating Degree Days 28 20  
Month to date heating degree days 131 114  
Since 1 July heating degree days 658 648  
Cooling Degree Days 0 0  
Month to date cooling degree days 0 0  
Year to date cooling degree days 222 192  
Moisture  
Dew Point 28 °F    
Average Humidity 71    
Maximum Humidity 92    
Minimum Humidity 49    
Precipitation  
Precipitation 0.03 in 0.08 in 1.43 in (1982)
Month to date precipitation 0.48 0.48  
Year to date precipitation 20.55 20.43  
Snow  
Snow 0.50 in 0.00 in 0.70 in (1974)
Month to date snowfall 2.0 0.1  
Since 1 July snowfall 2.0 0.2  
Since 1 September snowfall 2.0 0.2  
Snow Depth 0.00 in    
Sea Level Pressure  
Sea Level Pressure 30.22 in    
Wind  
Wind Speed 8 mph (WNW)    
Max Wind Speed 17 mph    
Max Gust Speed 22 mph    
Visibility 10 miles    
Events      
T = Trace of Precipitation, MM = Missing Value Source: NWS Daily Summary

Daily Weather History Graph

Daily Weather History Graph

Search for Another Location

Airport or City:

Trip Planner

Search our weather history database for the weather conditions in past years. The results will help you decide how hot, cold, wet, or windy it might be!

Date:

Astronomy

Oct. 06, 2012 Rise Set
Actual Time 7:21 AM CDT 6:41 PM CDT
Civil Twilight 6:49 AM CDT 7:12 PM CDT
Nautical Twilight 6:13 AM CDT 7:48 PM CDT
Astronomical Twilight 5:36 AM CDT 8:25 PM CDT
Moon 10:35 PM CDT (10/6) 1:38 PM CDT (10/6)
Length of Visible Light 12h 22m
Length of Day
11h 20m
Waning Gibbous, 65% of the Moon is Illuminated
Oct 6
Waning Gibbous
Oct 8
Last Quarter
Oct 15
New
Oct 21
First Quarter
Oct 29
Full

Hourly Weather History & Observations

Time (CDT) Temp. Windchill Dew Point Humidity Pressure Visibility Wind Dir Wind Speed Gust Speed Precip Events Conditions
12:55 AM 33.1 °F 23.0 °F 28.9 °F 85% 30.19 in 10.0 mi NNW 15.0 mph 21.9 mph 0.00 in   Overcast
1:55 AM 33.1 °F 24.4 °F 28.9 °F 85% 30.21 in 10.0 mi NNW 11.5 mph 20.7 mph N/A   Overcast
2:02 AM 33.8 °F 25.8 °F 28.4 °F 81% 30.16 in 10.0 mi NNW 10.4 mph - N/A   Overcast
2:55 AM 32.0 °F 26.4 °F 28.9 °F 88% 30.21 in 10.0 mi WNW 5.8 mph - N/A   Mostly Cloudy
3:55 AM 32.0 °F 24.8 °F 28.9 °F 88% 30.22 in 10.0 mi NW 8.1 mph - N/A   Overcast
4:55 AM 33.1 °F 24.4 °F 28.9 °F 85% 30.23 in 10.0 mi NNW 11.5 mph - N/A   Overcast
5:55 AM 30.0 °F 24.1 °F 28.0 °F 92% 30.24 in 10.0 mi NW 5.8 mph - N/A   Partly Cloudy
6:55 AM 28.9 °F 22.8 °F 27.0 °F 92% 30.25 in 10.0 mi NW 5.8 mph - N/A   Clear
7:55 AM 30.0 °F 22.4 °F 28.0 °F 92% 30.27 in 10.0 mi NW 8.1 mph - N/A   Clear
8:55 AM 32.0 °F 25.6 °F 28.9 °F 88% 30.27 in 10.0 mi NW 6.9 mph - N/A   Mostly Cloudy
9:55 AM 34.0 °F 27.2 °F 30.9 °F 89% 30.28 in 10.0 mi WNW 8.1 mph - N/A   Overcast
10:55 AM 37.9 °F 30.5 °F 30.9 °F 76% 30.29 in 10.0 mi NW 11.5 mph - N/A   Mostly Cloudy
11:55 AM 42.1 °F 37.7 °F 30.9 °F 65% 30.28 in 10.0 mi NNW 6.9 mph - N/A   Overcast
12:55 PM 41.0 °F 35.8 °F 27.0 °F 57% 30.27 in 10.0 mi NW 8.1 mph 18.4 mph N/A   Mostly Cloudy
1:55 PM 45.0 °F 38.5 °F 27.0 °F 49% 30.25 in 10.0 mi WNW 13.8 mph 17.3 mph N/A   Mostly Cloudy
2:55 PM 42.1 °F 35.7 °F 26.1 °F 53% 30.23 in 10.0 mi NW 11.5 mph - N/A   Mostly Cloudy
3:55 PM 43.0 °F 35.7 °F 25.0 °F 49% 30.22 in 10.0 mi WNW 15.0 mph 19.6 mph N/A   Mostly Cloudy
4:55 PM 39.2 °F 32.0 °F 24.8 °F 56% 30.17 in 10.0 mi West 11.5 mph - N/A   Partly Cloudy
5:55 PM 39.0 °F 34.0 °F 25.0 °F 57% 30.21 in 10.0 mi West 6.9 mph - N/A   Scattered Clouds
6:55 PM 37.0 °F 32.4 °F 25.0 °F 62% 30.20 in 10.0 mi WSW 5.8 mph - N/A   Clear
7:55 PM 35.1 °F 28.6 °F 26.1 °F 70% 30.20 in 10.0 mi West 8.1 mph - N/A   Clear
8:55 PM 34.0 °F 28.0 °F 27.0 °F 75% 30.19 in 10.0 mi WSW 6.9 mph - N/A   Clear
9:55 PM 33.1 °F 28.7 °F 27.0 °F 78% 30.17 in 10.0 mi WSW 4.6 mph - N/A   Clear
10:55 PM 28.9 °F - 25.0 °F 85% 30.15 in 10.0 mi Calm Calm - N/A   Clear
11:55 PM 28.0 °F 22.8 °F 25.0 °F 88% 30.12 in 10.0 mi SW 4.6 mph - N/A   Clear